Flag for United Kingdom Weather past 2 weeks in Durham, England, United Kingdom

Now
36 °F

Passing clouds.


Feels Like: 26 °F
Forecast: 35 / 47 °F
Wind: 15 mph from West

Location: Newcastle

Current Time: Feb 27, 2015 at 8:09:04 AM

Latest Report: Feb 27, 2015 at 7:20 AM


Visibility: N/A

Pressure: 29.89 "Hg

Humidity: 87%

Dew point: 32 °F

Location of DurhamLocation

Historic Weather in Durham — Graph

°F

Durham temperature yesterday

Maximum temperature yesterday: 52 °F (at 2:20 AM)
Minimum temperature yesterday: 36 °F (at 7:20 PM)
Average temperature yesterday: 43 °F

Past Weeks' High & Low Weather Summary

 TemperatureHumidityPressure
High54 °F (Feb 18, 12:20 PM)100% (Feb 14, 1:20 AM)30.51 "Hg (Feb 14, 1:20 AM)
Low30 °F (Feb 22, 12:50 AM)54% (Feb 25, 1:20 PM)28.77 "Hg (Feb 23, 6:50 PM)
Average41 °F83%29.72 "Hg
* Reported Feb 12 6:20 AM — Feb 27 6:50 AM, Durham, Weather by CustomWeather, © 2015

Note: Actual official high and low records may vary slightly from our data, if they occured in-between our weather recording intervals... More about our weather records

Advertising

Durham weather history for previous 24 hours

 ConditionsComfort  
Time TempWeatherWind HumidityBarometerVisibility
6:50 AM
Fri, Feb 27
36 °FPassing clouds.14 mph87%29.89 "HgN/A
6:20 AM36 °FClear.14 mph81%29.89 "Hg10 mi
5:50 AM36 °FClear.17 mph81%29.89 "Hg10 mi
5:20 AM36 °FClear.13 mph81%29.89 "Hg10 mi
4:50 AM36 °FClear.13 mph81%29.89 "Hg10 mi
4:20 AM36 °FClear.18 mph81%29.89 "Hg10 mi
2:50 AM36 °FClear.17 mph87%29.86 "Hg10 mi
2:20 AM36 °FClear.16 mph81%29.86 "Hg10 mi
1:50 AM36 °FClear.14 mph87%29.86 "Hg10 mi
1:20 AM36 °FClear.13 mph81%29.86 "Hg10 mi
12:50 AM36 °FClear.16 mph87%29.86 "Hg10 mi
12:20 AM36 °FClear.8 mph81%29.86 "Hg10 mi
11:50 PM
Thu, Feb 26
36 °FClear.12 mph81%29.83 "Hg10 mi
11:20 PM36 °FPassing clouds.14 mph81%29.83 "HgN/A
10:50 PM36 °FPassing clouds.12 mph81%29.83 "HgN/A
10:20 PM36 °FPassing clouds.15 mph81%29.83 "HgN/A
9:50 PM36 °FPassing clouds.14 mph81%29.83 "HgN/A
9:20 PM36 °FClear.9 mph81%29.83 "Hg10 mi
8:50 PM36 °FClear.10 mph81%29.83 "Hg10 mi
8:20 PM36 °FClear.13 mph81%29.80 "Hg10 mi
7:50 PM36 °FPassing clouds.8 mph81%29.83 "HgN/A
7:20 PM36 °FPassing clouds.10 mph81%29.80 "HgN/A
6:50 PM37 °FPassing clouds.13 mph75%29.80 "HgN/A
6:20 PM37 °FPassing clouds.14 mph81%29.77 "HgN/A
5:50 PM37 °FPassing clouds.9 mph81%29.77 "HgN/A
5:20 PM37 °FPassing clouds.9 mph81%29.74 "HgN/A
4:50 PM39 °FPassing clouds.9 mph81%29.74 "HgN/A
4:20 PM39 °FScattered showers. Passing clouds.17 mph75%29.74 "HgN/A
3:50 PM41 °FScattered showers. Scattered clouds.16 mph81%29.74 "HgN/A
3:20 PM39 °FScattered showers. Scattered clouds.10 mph81%29.71 "HgN/A
2:50 PM41 °FSprinkles. Scattered clouds.15 mph76%29.71 "HgN/A
2:20 PM43 °FScattered showers. Scattered clouds.22 mph66%29.68 "HgN/A
1:50 PM45 °FScattered clouds.18 mph66%29.68 "HgN/A
1:20 PM45 °FScattered clouds.24 mph66%29.68 "HgN/A
12:50 PM43 °FScattered clouds.15 mph76%29.65 "HgN/A
12:20 PM46 °FScattered showers. Scattered clouds.17 mph71%29.65 "HgN/A
11:50 AM45 °FScattered clouds.16 mph76%29.65 "HgN/A
10:50 AM43 °FScattered clouds.16 mph87%29.62 "HgN/A
10:20 AM43 °FScattered clouds.17 mph87%29.62 "HgN/A
9:50 AM43 °FLight rain. Scattered clouds.15 mph87%29.62 "HgN/A
9:20 AM45 °FLight rain. Partly sunny.21 mph87%29.59 "HgN/A
8:50 AM46 °FLight rain. Partly sunny.20 mph87%29.56 "HgN/A
8:20 AM48 °FLight rain. Scattered clouds.12 mph94%29.56 "HgN/A
Weather by CustomWeather, © 2015

See weather overviewHow to use our weather pages